Other Public Products
Issued by NWS Grand Forks, ND

Home | Current Version | Previous Version | Graphics & Text | Print | Product List | Glossary On
Versions: 1 2 3 4 5 6 7 8 9 10 11 12 13 14 15 16 17 18 19 20 21 22 23 24 25 26 27 28 29 30 31 32 33 34 35 36 37 38 39 40 41 42 43 44 45 46 47 48 49 50
000
FPUS83 KFGF 271410
OPUFGF
PRAIRIE TO PINES WEATHER ROUNDUP
NATIONAL WEATHER SERVICE EASTERN NORTH DAKOTA/GRAND FORKS ND
800 AM CST FRI FEB 27 2015

 **SATELLITE DATA USED TO AUGMENT SKY COVER AT AUTOMATED STATIONS**
 *****  WEATHER ACROSS EASTERN NORTH DAKOTA  *****

CITY           SKY/WX    TMP DP  RH WIND       PRES   REMARKS
GRAND FORKS    CLEAR    -15 -20  78 SW6       30.44S WCI -29
GRAND FORKS AF CLEAR     -7 -15  68 W8        30.44R WCI -23
GRAND CITY NWS   N/A     -9 N/A N/A SW5         N/A  WCI -21
BUXTON         NOT AVBL
DEVILS LAKE    PTCLDY   N/A N/A N/A MISG        N/A
FARGO          FAIR      -9 -15  75 SW8       30.49S WCI -25
WAHPETON ARPT  SUNNY     -8 -15  71 W6        30.51S WCI -21
$$

 *****  WEATHER ACROSS CENTRAL AND WESTERN NORTH DAKOTA  *****

CITY           SKY/WX    TMP DP  RH WIND       PRES   REMARKS
JAMESTOWN      PTCLDY    -9 -15  75 W3        30.42S
BISMARCK       PTCLDY   -13 -18  78 E6        30.41F WCI -27
MINOT          PTCLDY    -8 -14  74 SW10      30.32F WCI -26
MINOT AFB      PTCLDY   -12 -16  82 SW6       30.32F WCI -26
GARRISON         N/A    -15 -19  82 CALM      30.33F
WILLISTON      CLEAR    -13 -17  82 CALM      30.27F
DICKINSON      PTCLDY    -4 -11  72 S9        30.22F WCI -20
HETTINGER      CLEAR     -5 -11  75 SE7       30.26F WCI -19
$$

 *****  OTHER OBSERVATIONS NORTHEAST NORTH DAKOTA  *****

CITY           SKY/WX    TMP DP  RH WIND       PRES   REMARKS
WALHALLA         N/A      0 -13  55 W9        30.38S WCI -16
LANGDON        NOT AVBL
CAVALIER       FAIR      -2 -11  65 W12       30.39F WCI -20
GRAFTON        NOT AVBL
CANDO          FAIR     -17 -20  83 SW7       30.38S WCI -33
FORT TOTTEN      N/A    -11 -18  70 S2        29.95S
ROLLA          FAIR     -11 -18  70 S7        30.31S WCI -26
RUGBY          FAIR     -13 -18  77 S3        30.37S
 ***** THE ABOVE OBSERVATIONS ARE NON NWS ARE NOT QUALITY
        CONTROLLED AND MAY MIS-REPORT RAIN FOR SNOW...
$$

 *****  OTHER OBSERVATIONS SOUTHEAST NORTH DAKOTA *****

CITY           SKY/WX    TMP DP  RH WIND       PRES   REMARKS
COOPERSTOWN    NOT AVBL
VALLEY CITY    FAIR      -8 -13  77 W14       30.43S WCI -28
OAKES            N/A    -13 -18  77 S8        30.47S WCI -30
GWINNER        SUNNY     -8 -15  71 SW12      30.48S WCI -27
SHEYENNE NWR     N/A    -13 -21  68 W5        29.95S WCI -25
BUFFALO        NOT AVBL
WYNDMERE         N/A     -8 -15  71 W8          N/A  WCI -23
 ***** THE ABOVE OBSERVATIONS ARE NON NWS ARE NOT QUALITY
       CONTROLLED AND MAY MIS-REPORT RAIN FOR SNOW...
$$

  *****  WEATHER ACROSS NORTHERN MINNESOTA  *****

CITY           SKY/WX    TMP DP  RH WIND       PRES   REMARKS
FLAG ISLAND    MOCLDY   -15 -18  84 S3        30.34R
WARROAD        MOCLDY    -9 -17  70 SW3       30.36S
ROSEAU         PTCLDY    -9 -15  77 MISG      30.37S
HALLOCK        NOT AVBL
THF RVR FALLS  PTCLDY   -13 N/A N/A S8        30.39F WCI -30
HALSTAD        NOT AVBL
FOSSTON        MOCLDY   -17 -20  83 S6        30.42S WCI -31
BAUDETTE       MOCLDY   -14 -19  79 SW6       30.35S WCI -28
WASKISH        MOCLDY    -8 -11  84 SW7       30.38S WCI -22
CROOKSTON      FAIR     -11 -17  77 S7        30.46S WCI -26
$$
  *****  WEATHER ACROSS CENTRAL AND WEST MINNESOTA  *****

CITY           SKY/WX    TMP DP  RH WIND       PRES   REMARKS
BEMIDJI        PTCLDY   -11 -15  82 SW5       30.39S WCI -23
PARK RAPIDS    MOCLDY   -12 -16  82 CALM      30.41S
WADENA         MOCLDY   -11 -17  77 SW3       30.44R
DETROIT LAKES  PTCLDY    -9 -13  84 CALM      30.44S
MOORHEAD       PTCLDY    -8 -11  84 S5        30.49S WCI -19
FERGUS FALLS   CLEAR     -9 -15  77 SW3       30.53S
ELBOW LAKE     FAIR     -13 -17  82 CALM      30.48S
MORRIS MN      CLEAR     -9 -15  77 SW3       30.49S
STAPLES        PTCLDY   -11 -15  84 CALM      30.45R
WHEATON        CLEAR    -11 -17  77 CALM      30.53R
$$
  *****  WEATHER ELSEWHERE ACROSS MINNESOTA  *****

CITY           SKY/WX    TMP DP  RH WIND       PRES   REMARKS
DULUTH         MOSUNNY   -8 -14  74 W7        30.39R WCI -23
INTRNTL FALLS  PTCLDY   -16 -20  82 SW5       30.37R WCI -29
ELY            PTCLDY   -15 -18  84 SW3       30.36R
CLOQUET        MOSUNNY   -9 -15  77 W6        30.41S WCI -23
BRAINERD       PTCLDY   -13 -17  82 S3        30.45S
HIBBING        PTCLDY   -19 -26  70 CALM      30.38S
ALEXANDRIA     PTCLDY    -3 -15  56 W5        30.45S WCI -13
SAINT CLOUD    CLEAR     -5 -10  79 CALM      30.50S
MINNEAPOLIS    FAIR      -5 -10  79 SW6       30.55R WCI -18
$$

  *****  WEATHER ACROSS SOUTH DAKOTA  *****

CITY           SKY/WX    TMP DP  RH WIND       PRES   REMARKS
SIOUX FALLS    CLEAR     -9 -13  83 CALM      30.53S
BROOKINGS      NOT AVBL
WATERTOWN      PTCLDY   -12 -15  86 S3        30.45S
HURON          PTCLDY   -15 -19  82 CALM      30.52F
SISSETON         N/A     -5 -11  75 W5        30.48F WCI -16
ABERDEEN       MOCLDY   -17 -23  73 CALM      30.50F
MITCHELL       CLEAR     -3  -9  75 SW3       30.55S
PIERRE         CLEAR     -8 -12  83 CALM      30.43F
MOBRIDGE       MOCLDY    -8 -13  78 SE6       30.39F WCI -21
RAPID CITY     CLEAR     -3  -8  79 SE10      30.22F WCI -20
$$

  *****  SOME WEATHER IN NEARBY STATES *****

CITY           SKY/WX    TMP DP  RH WIND       PRES   REMARKS
GLASGOW MT     CLEAR     -1  -8  72 SE13      30.11F WCI -19
GREAT FALLS MT MOCLDY     4   1  88 CALM      29.91R
CHEYENNE WY    CLOUDY     3  -1  83 S12       29.94F FOG     WCI -13
SCOTTSBLUFF NE CLOUDY     7   1  76 SE14      30.18F WCI -10
OMAHA NE       CLEAR      1  -4  79 CALM      30.63R
DES MOINES IA  SUNNY     -4 -11  72 NW3       30.62R
DAVENPORT IA   PTSUNNY  -16 -19  87 CALM      30.61R
CHICAGO IL     MOSUNNY    1  -9  62 NW8       30.55R WCI -13
EAU CLAIRE WI  SUNNY     -7 -13  75 SW7       30.52R WCI -21
LA CROSSE WI   SUNNY     -6 -11  79 S6        30.58R WCI -19
$$

  *****  SOME NATIONAL WEATHER *****

CITY           SKY/WX    TMP DP  RH WIND       PRES   REMARKS
LA GUARDIA NY  MOSUNNY   20   6  55 NW14      30.39R WCI   7
RALEIGH NC     MOSUNNY   31  29  92 CALM      30.35R
ATLANTA GA     MOSUNNY   33  24  69 NW16      30.36R WCI  23
NEW ORLEANS LA PTSUNNY   38  30  73 NE18G28   30.39S
OKLAHOMA CITY  CLOUDY    18   1  47 NE16      30.50R WCI   3
ALBUQUERQUE NM CLOUDY    25  17  72 NE16      29.98R WCI  12
SALT LAKE CITY CLOUDY    32  25  75 S7        29.82F
LOS ANGELES CA MOCLDY    52  50  93 E6        29.84R
BOISE ID       CLOUDY    37  31  78 SE12      29.78F
SEATTLE WA     LGT RAIN  46  44  93 NE9       29.72S
$$

*** WEATHER ACROSS MANITOBA...SASKATCHEWAN AND ONTARIO ***
                ***ONTARIO***

CITY           SKY/WX    TMP DP  RH WIND       PRES   REMARKS
GERALDTON      MOSUNNY   -4 -13  65 W10       30.19R WCI -21
THUNDER BAY    NOT AVBL
SIOUX LOOKOUT  MOCLDY    -9 -15  77 SW7       30.25R WCI -24
TORONTO        PTSUNNY    5  -4  66 W8        30.45R WCI  -8
BIG TROUT LK   CLEAR      1  -9  60 W13G21    29.94F WCI -16
PICKLE LAKE    PTCLDY    -6 -15  65 W15       30.11S WCI -27
DRYDEN         PTCLDY   -11 -17  77 SW9       30.26S WCI -29
KENORA         NOT AVBL
$$
                *** MANITOBA***

CITY           SKY/WX    TMP DP  RH WIND       PRES   REMARKS
BRANDON        MOCLDY   -18 -26  69 W8        30.34F WCI -37
DAUPHIN        CLEAR     -6 -13  71 W12       30.27F WCI -24
ISLAND LAKE    PTCLDY    -4 -15  59 SW9       30.03F WCI -20
PILOT MOUND      N/A    -18 -24  76 SW5         N/A  WCI -31
THE PAS        CLOUDY    -2 -11  65 W10       30.13F WCI -19
THOMPSON       MOCLDY     1  -6  71 W7        29.97S WCI -11
WINNIPEG       PTCLDY   -11 -18  70 S7        30.36F WCI -26
LYNN LAKE      CLOUDY     3  -2  78 NW13      29.99F WCI -14
CHURCHILL      CRYSTALS   1  -2  85 NW17      29.86S DRFTSNOWWCI -19
GILLAM         MOCLDY     5   1  85 W8        29.91R WCI  -8
$$
                ***SASKATCHEWAN***

CITY           SKY/WX    TMP DP  RH WIND       PRES   REMARKS
ESTEVAN        NOT AVBL
KINDERSLEY     MOCLDY    -8 -11  84 SW5       30.08F WCI -19
LLOYDMINSTER   CLOUDY    -2  -6  84 NW5       30.08F WCI -12
PRINCE ALBERT  CLOUDY   -22 -27  76 VRB2      30.17F
REGINA         PTCLDY   -17 -22  76 SE10      30.20F WCI -37


USA.gov is the U.S. government's official web portal to all federal, state and local government web resources and services.